Change the Weather History Date:

Monday, June 16, 2014

  Actual Average Record
Temperature  
Mean Temperature 55 °F 55 °F  
Max Temperature 69 °F 63 °F 85 °F (2013)
Min Temperature 41 °F 47 °F 35 °F (1962)
Degree Days  
Heating Degree Days 10 10  
Month to date heating degree days 168 179  
Since 1 June heating degree days 168 179  
Since 1 July heating degree days 7940 8215  
Cooling Degree Days 0 0  
Month to date cooling degree days 0 0  
Year to date cooling degree days 0 0  
Since 1 June cooling degree days 0 0  
Growing Degree Days 5 (Base 50)    
Moisture  
Dew Point 42 °F    
Average Humidity 67    
Maximum Humidity 96    
Minimum Humidity 37    
Precipitation  
Precipitation 0.00 in 0.11 in 1.07 in (1963)
Month to date precipitation 3.19 1.71  
Year to date precipitation 23.11 21.31  
Sea Level Pressure  
Sea Level Pressure 29.96 in    
Wind  
Wind Speed 7 mph (SE)    
Max Wind Speed 21 mph    
Max Gust Speed 26 mph    
Visibility 10 miles    
Events      
T = Trace of Precipitation, MM = Missing Value Source: NWS Daily Summary

Daily Weather History Graph

Daily Weather History Graph

Search for Another Location

Airport or City:

Trip Planner

Search our weather history database for the weather conditions in past years. The results will help you decide how hot, cold, wet, or windy it might be!

Date:

Astronomy

Jun. 16, 2014 Rise Set
Actual Time 3:51 AM AKDT 10:07 PM AKDT
Civil Twilight 2:32 AM AKDT 11:25 PM AKDT
Nautical Twilight Sun does not rise Sun does not rise
Astronomical Twilight Sun does not rise Sun does not rise
Moon 11:57 PM AKDT (6/16) 9:00 AM AKDT (6/16)
Length of Visible Light 20h 53m
Length of Day
18h 16m
Waning Gibbous, 82% of the Moon is Illuminated
Jun 16
Waning Gibbous
Jun 19
Last Quarter
Jun 27
New
Jul 5
First Quarter
Jul 12
Full

Hourly Weather History & Observations

Time (AKDT) Temp. Windchill Dew Point Humidity Pressure Visibility Wind Dir Wind Speed Gust Speed Precip Events Conditions
12:53 AM 45.0 °F - 43.0 °F 93% 29.94 in 10.0 mi Calm Calm - N/A   Scattered Clouds
1:53 AM 43.0 °F 41.3 °F 41.0 °F 93% 29.95 in 10.0 mi East 3.5 mph - N/A   Partly Cloudy
2:53 AM 42.1 °F - 39.9 °F 92% 29.96 in 10.0 mi Calm Calm - N/A   Partly Cloudy
3:53 AM 43.0 °F - 41.0 °F 93% 29.96 in 10.0 mi Calm Calm - N/A   Partly Cloudy
4:53 AM 44.1 °F - 41.0 °F 89% 29.98 in 10.0 mi Calm Calm - N/A   Partly Cloudy
5:53 AM 46.0 °F - 43.0 °F 89% 29.99 in 10.0 mi Calm Calm - N/A   Partly Cloudy
6:53 AM 50.0 °F - 44.1 °F 80% 30.00 in 10.0 mi Calm Calm - N/A   Partly Cloudy
7:53 AM 53.1 °F - 44.1 °F 71% 30.00 in 10.0 mi ESE 6.9 mph - N/A   Partly Cloudy
8:53 AM 55.9 °F - 45.0 °F 67% 30.00 in 10.0 mi ESE 6.9 mph - N/A   Partly Cloudy
9:53 AM 57.9 °F - 43.0 °F 58% 30.00 in 10.0 mi Calm Calm - N/A   Partly Cloudy
10:53 AM 61.0 °F - 45.0 °F 56% 30.00 in 10.0 mi Variable 5.8 mph - N/A   Partly Cloudy
11:53 AM 64.0 °F - 45.0 °F 50% 29.99 in 10.0 mi West 8.1 mph - N/A   Partly Cloudy
12:53 PM 64.4 °F - 44.6 °F 49% 29.99 in 10.0 mi WSW 9.2 mph - N/A   Partly Cloudy
1:53 PM 64.0 °F - 43.0 °F 46% 29.98 in 10.0 mi WSW 12.7 mph - N/A   Scattered Clouds
2:53 PM 66.0 °F - 42.1 °F 42% 29.96 in 10.0 mi WSW 8.1 mph - N/A   Scattered Clouds
3:53 PM 68.0 °F - 42.1 °F 39% 29.96 in 10.0 mi West 6.9 mph - N/A   Mostly Cloudy
4:53 PM 66.9 °F - 42.1 °F 40% 29.95 in 10.0 mi NE 6.9 mph - N/A   Mostly Cloudy
5:53 PM 66.9 °F - 39.9 °F 37% 29.94 in 10.0 mi West 9.2 mph - N/A   Mostly Cloudy
6:53 PM 64.0 °F - 41.0 °F 43% 29.94 in 10.0 mi ESE 12.7 mph - N/A   Mostly Cloudy
7:53 PM 64.0 °F - 39.0 °F 40% 29.93 in 10.0 mi ESE 10.4 mph - N/A   Mostly Cloudy
8:53 PM 57.9 °F - 42.1 °F 56% 29.93 in 10.0 mi East 8.1 mph - N/A   Mostly Cloudy
9:53 PM 57.0 °F - 42.1 °F 57% 29.93 in 10.0 mi East 11.5 mph - N/A   Mostly Cloudy
10:53 PM 55.9 °F - 43.0 °F 62% 29.92 in 10.0 mi East 11.5 mph - N/A   Overcast
11:53 PM 55.0 °F - 44.1 °F 67% 29.91 in 10.0 mi East 13.8 mph - N/A   Overcast